This demonstration page uses our WeatherBlox Daily Observations layout. Learn more.

Left ArrowRight Arrow

40.92945, -100.16068

Hourly Observations for February 10, 2018

Temp ( °F °C ) Dew Point ( °F °C ) Humidity (%) Winds ( mph kmh ) Pressure ( in mb ) Visibility ( mi km ) Precip ( " mm )
12:15 am 00:15 Cloudy 7 -14 1 -17.2 77 77 N 12 19 30.53 1034 10 16.0934 0 0
12:35 am 00:35 Cloudy 7 -14 1 -17.4 76 76 N 8 13 30.53 1034 10 16.0934 0 0
12:55 am 00:55 Cloudy 7 -14 1 -17.5 75 75 N 13 20 30.53 1034 10 16.0934 0 0
1:15 am 01:15 Cloudy 7 -14.1 1 -17.5 76 76 N 8 13 30.53 1034 10 16.0934 0 0
1:35 am 01:35 Cloudy 6 -14.2 0 -17.8 74 74 N 9 15 30.53 1034 10 16.0934 0 0
1:55 am 01:55 Cloudy 6 -14.5 0 -17.9 76 76 N 7 11 30.53 1034 10 16.0934 0 0
2:15 am 02:15 Partly Cloudy 6 -14.3 0 -17.7 76 76 N 8 13 30.53 1034 10 16.0934 0 0
2:35 am 02:35 Mostly Cloudy 6 -14.2 0 -17.9 74 74 N 8 13 30.53 1034 10 16.0934 0 0
2:55 am 02:55 Partly Cloudy 6 -14.5 0 -18 75 75 N 9 15 30.5 1033 10 16.0934 0 0
3:15 am 03:15 Clear 6 -14.5 0 -18 75 75 N 7 11 30.53 1034 10 16.0934 0 0
3:35 am 03:35 Clear 6 -14.6 -1 -18.4 73 73 N 8 13 30.53 1034 10 16.0934 0 0
3:55 am 03:55 Clear 5 -14.8 -1 -18.6 73 73 N 8 13 30.53 1034 10 16.0934 0 0
4:15 am 04:15 Clear 5 -15.2 -2 -18.8 74 74 NNW 9 15 30.53 1034 10 16.0934 0 0
4:35 am 04:35 Clear 3 -16 -3 -19.6 74 74 NNW 9 15 30.5 1033 10 16.0934 0 0
4:55 am 04:55 Clear 1 -17.4 -5 -20.6 76 76 N 8 13 30.53 1034 10 16.0934 0 0
5:15 am 05:15 Clear -2 -18.8 -8 -22 76 76 NNW 5 7 30.53 1034 10 16.0934 0 0
5:35 am 05:35 Clear -4 -19.9 -9 -22.8 78 78 NNW 6 9 30.56 1035 10 16.0934 0 0
5:55 am 05:55 Clear -4 -20.1 -9 -23 78 78 NNW 9 15 30.56 1035 10 16.0934 0 0
6:15 am 06:15 Clear -2 -19 -7 -21.7 79 79 NNW 8 13 30.53 1034 10 16.0934 0 0
6:35 am 06:35 Clear -2 -19 -7 -21.9 78 78 NW 5 7 30.53 1034 10 16.0934 0 0
6:55 am 06:55 Clear -1 -18.6 -7 -21.5 78 78 NW 6 9 30.5 1033 10 16.0934 0 0
7:15 am 07:15 Clear -2 -19 -8 -22 77 77 NW 7 11 30.5 1033 10 16.0934 0 0
7:35 am 07:35 Clear -2 -18.9 -7 -21.9 77 77 NW 6 9 30.5 1033 10 16.0934 0 0
7:55 am 07:55 Sunny -1 -18.5 -7 -21.4 78 78 NW 8 13 30.5 1033 10 16.0934 0 0
8:15 am 08:15 Sunny -1 -18.1 -6 -21.1 78 78 NW 7 11 30.53 1034 10 16.0934 0 0
8:35 am 08:35 Mostly Cloudy 0 -17.7 -5 -20.8 77 77 NW 6 9 30.5 1033 10 16.0934 0 0
8:55 am 08:55 Cloudy 0 -17.8 -6 -21 76 76 NNW 3 6 30.5 1033 10 16.0934 0 0
9:15 am 09:15 Mostly Cloudy 0 -17.6 -6 -21 75 75 NNW 5 7 30.5 1033 10 16.0934 0 0
9:35 am 09:35 Cloudy 1 -17.3 -5 -20.7 75 75 NW 6 9 30.5 1033 10 16.0934 0 0
9:55 am 09:55 Mostly Cloudy 2 -16.8 -5 -20.4 74 74 NNW 3 6 30.48 1032 10 16.0934 0 0
10:15 am 10:15 Mostly Cloudy 2 -16.5 -4 -20 75 75 Calm 30.48 1032 10 16.0934 0 0
10:35 am 10:35 Mostly Cloudy 3 -15.9 -4 -19.8 72 72 NW 5 7 30.48 1032 10 16.0934 0 0
10:55 am 10:55 Cloudy 4 -15.4 -3 -19.3 72 72 NNW 5 7 30.45 1031 10 16.0934 0 0
11:15 am 11:15 Cloudy 5 -14.9 -2 -19 71 71 NNW 5 7 30.48 1032 10 16.0934 0 0
11:35 am 11:35 Cloudy 6 -14.6 -2 -18.7 71 71 N 3 6 30.42 1030 10 16.0934 0 0
11:55 am 11:55 Cloudy 7 -14.1 -1 -18.5 70 70 N 6 9 30.42 1030 10 16.0934 0 0
12:15 pm 12:15 Cloudy 7 -14 -1 -18.6 68 68 NNE 6 9 30.42 1030 10 16.0934 0 0
12:35 pm 12:35 Cloudy 7 -13.8 -1 -18.6 67 67 N 5 7 30.39 1029 10 16.0934 0 0
12:55 pm 12:55 Cloudy 7 -13.7 -1 -18.4 68 68 Calm 30.39 1029 10 16.0934 0 0
1:15 pm 13:15 Cloudy 8 -13.6 -1 -18.3 68 68 Calm 30.39 1029 10 16.0934 0 0
1:35 pm 13:35 Cloudy 8 -13.5 -1 -18.4 67 67 NNE 5 7 30.39 1029 10 16.0934 0 0
1:55 pm 13:55 Cloudy 8 -13.5 -1 -18.2 68 68 Calm 30.36 1028 7 11.26538 0 0
2:15 pm 14:15 Cloudy with Light Snow 8 -13.5 0 -17.7 71 71 NNE 3 6 30.36 1028 3 4.82802 0 0
2:35 pm 14:35 Cloudy with Light Snow 8 -13.3 1 -17.2 73 73 Calm 30.36 1028 3 4.82802 0 0
2:55 pm 14:55 Cloudy with Light Snow 8 -13.3 1 -17.1 73 73 Calm 30.36 1028 2.5 4.02335 0 0
3:15 pm 15:15 Cloudy with Haze 8 -13.1 2 -16.6 75 75 N 3 6 30.36 1028 4 6.43736 0 0
3:35 pm 15:35 Cloudy with Light Snow 9 -13 3 -16.3 77 77 N 5 7 30.36 1028 2 3.21868 0 0
3:55 pm 15:55 Cloudy with Light Snow 9 -13 3 -16.2 77 77 NNW 5 7 30.33 1027 1.75 2.816345 0 0
4:20 pm 16:20 Cloudy with Light Snow 9 -13 3 -16.1 78 78 NNW 5 7 30.33 1027 2 3.21868 0 0
4:35 pm 16:35 Cloudy with Light Snow 9 -12.8 3 -16 77 77 NW 3 6 30.3 1026 2.5 4.02335 0 0
5:20 pm 17:20 Cloudy with Light Snow 9 -12.6 4 -15.8 77 77 NW 6 9 30.3 1026 7 11.26538 0 0
5:35 pm 17:35 Cloudy with Light Snow 10 -12.5 4 -15.5 79 79 NW 5 7 30.3 1026 2 3.21868 0 0
6:20 pm 18:20 Cloudy with Light Snow 10 -12.5 5 -15 82 82 WNW 5 7 30.3 1026 2.5 4.02335 0 0
6:35 pm 18:35 Cloudy with Light Snow 10 -12.3 5 -14.9 81 81 WNW 6 9 30.33 1027 4 6.43736 0 0
6:50 pm 18:50 Cloudy with Light Snow 10 -12.3 5 -15 80 80 W 6 9 30.33 1027 5 8.0467 0 0
7:20 pm 19:20 Cloudy with Light Snow 10 -12.1 6 -14.7 81 81 WNW 7 11 30.33 1027 5 8.0467 0 0
7:35 pm 19:35 Cloudy with Light Snow 10 -12.1 6 -14.6 82 82 WNW 7 11 30.33 1027 4 6.43736 0 0
7:52 pm 19:52 Cloudy with Light Snow 10 -12 7 -14 85 85 NW 7 11 30.3 1026 4 6.43736 0 0
8:20 pm 20:20 Cloudy 11 -11.7 6 -14.5 80 80 WNW 7 11 30.3 1026 10 16.0934 0 0
8:35 pm 20:35 Cloudy with Light Snow 11 -11.6 6 -14.5 79 79 WNW 9 15 30.3 1026 10 16.0934 0 0
9:20 pm 21:20 Cloudy 11 -11.5 6 -14.5 79 79 W 6 9 30.3 1026 10 16.0934 0 0
9:55 pm 21:55 Cloudy 11 -11.4 6 -14.4 79 79 W 7 11 30.3 1026 10 16.0934 0 0
10:15 pm 22:15 Mostly Cloudy 11 -11.5 6 -14.5 79 79 W 7 11 30.3 1026 10 16.0934 0 0
10:35 pm 22:35 Clear 10 -12 5 -14.9 79 79 W 5 7 30.3 1026 10 16.0934 0 0
10:55 pm 22:55 Clear 9 -13 4 -15.5 82 82 WSW 5 7 30.27 1025 10 16.0934 0 0
11:15 pm 23:15 Clear 8 -13.3 4 -15.8 82 82 WSW 3 6 30.33 1027 10 16.0934 0 0
11:35 pm 23:35 Clear 7 -14.1 3 -16.2 84 84 SW 5 7 30.33 1027 10 16.0934 0 0
11:55 pm 23:55 Clear 9 -12.9 5 -15.1 84 84 SSW 5 7 30.27 1025 10 16.0934 0 0

Powered by AerisWeather